Probability
0 1 0 0 0 0 0 0 0 0 0 0 0 0 1 2 2 2 2 1 0 0 0 0 0 0 0 0 0 0 0 0 0 0 0 0 0 0
1 1 0 0 0 0 0 0 0 0 0 0 0 0 0 1 1 1 1 0 0 0 0 0 0 0 0 0 0 0 0 0 0 0 0 0 0 0
0 0 0 0 0 0 0 0 0 0 0 0 0 0 0 0 0 0 0 0 0 0 0 0 0 0 0 0 0 0 0 0 0 0 0 0 0 0
0 0 1 1 1 0 0 0 0 0 0 0 0 0 0 0 0 0 0 0 0 0 0 0 0 0 0 0 0 0 0 0 0 0 0 0 0 0
0 0 1 2 1 0 0 0 0 0 0 0 0 0 0 0 0 0 0 0 0 0 0 0 0 0 0 0 0 0 0 0 0 0 0 0 0 0
0 0 1 1 1 0 0 0 0 0 0 0 0 0 0 0 0 0 0 0 0 0 0 0 0 0 0 0 0 0 0 0 0 0 0 0 0 0
0 1 1 1 0 0 0 0 0 0 0 0 0 0 0 0 0 0 0 0 0 0 0 0 0 0 0 0 0 0 0 0 0 0 0 0 0 0
1 1 1 0 0 0 0 0 0 0 0 0 0 0 0 0 0 0 0 0 0 0 0 0 0 0 0 0 0 0 0 0 0 0 0 0 0 0
0 0 0 0 0 0 0 0 0 0 0 0 0 0 0 0 0 0 0 0 0 0 0 0 0 0 0 0 0 0 0 0 0 0 0 0 0 0
0 0 0 0 0 0 0 0 0 0 0 0 0 0 0 0 0 0 0 0 0 0 0 0 0 0 0 0 0 0 0 0 0 0 0 0 0 0
0 0 0 0 0 0 0 0 0 0 0 0 0 0 0 0 0 0 0 0 0 0 0 0 0 0 0 0 0 0 0 0 0 0 0 0 0 0
0 0 0 0 0 0 0 0 0 0 0 0 0 0 0 0 0 0 0 0 0 0 0 0 0 0 0 0 0 0 0 0 0 0 0 0 0 0
0 0 0 0 0 0 0 0 0 0 0 0 0 0 0 0 0 0 0 0 0 0 0 0 0 0 0 0 0 0 0 0 0 0 0 0 0 0
0 0 0 0 0 0 0 0 0 0 0 0 0 0 0 0 0 0 0 0 0 0 0 0 0 0 0 0 0 0 0 0 0 0 0 0 0 0
0 0 0 0 0 0 0 0 0 0 0 0 0 0 0 0 0 0 0 0 0 0 0 0 0 0 0 0 0 0 0 0 0 0 0 0 0 0
0 0 0 0 0 0 0 0 0 0 0 0 0 0 0 0 0 0 0 0 0 0 0 0 0 0 0 0 0 0 0 0 0 0 0 0 0 0
0 0 0 0 0 0 0 0 0 0 0 0 0 0 0 0 0 0 0 0 0 0 0 0 0 0 0 0 0 0 0 0 0 0 0 0 0 0
0 0 0 0 0 0 0 0 0 0 0 0 0 0 0 0 0 0 0 0 0 0 0 0 0 0 0 0 0 0 0 0 0 0 0 0 0 0
0 0 0 0 0 0 0 0 0 0 0 0 0 0 0 0 0 0 0 0 0 0 0 0 0 0 0 0 0 0 0 0 0 0 0 0 0 0
0 0 0 0 0 0 0 0 0 0 0 0 0 0 0 0 0 0 0 0 0 0 0 0 0 0 0 0 0 0 0 0 0 0 0 0 0 0
0 0 0 0 0 0 0 0 0 0 0 0 0 0 0 0 0 0 0 0 0 0 0 0 0 0 0 0 0 0 0 0 0 0 0 0 0 0
0 0 0 0 0 0 0 0 0 0 0 0 0 0 0 0 0 0 0 0 0 0 0 0 0 0 0 0 0 0 0 0 0 0 0 0 0 0
0 0 0 0 0 0 0 0 0 0 0 0 0 0 0 0 0 0 0 0 0 0 0 0 0 0 0 0 0 0 0 0 0 0 0 0 0 0
Wind_Speed
5 6 5 5 5 5 6 6 6 6 6 5 4 4 4 4 5 6 6 7 8 9 9 9 9 9 9 10 10 10 11 11 10 11 11 11 12 12
4 5 6 5 5 5 5 6 6 7 7 5 5 4 4 4 6 6 6 7 8 8 9 9 9 9 9 10 10 10 10 9 10 11 11 11 11 12
5 6 7 6 6 5 5 5 5 6 7 6 5 5 5 6 5 5 5 6 5 7 8 9 9 9 9 8 8 9 9 9 10 10 11 11 11 12
7 7 7 6 7 6 5 6 5 6 7 8 6 5 6 6 5 5 5 5 5 6 7 8 8 8 7 8 8 8 8 9 9 10 10 10 11 11
7 7 7 7 7 6 6 5 5 5 6 6 6 5 4 4 5 5 6 5 4 5 6 7 6 7 7 8 8 8 8 8 8 9 9 9 10 10
7 7 7 7 7 7 6 6 5 5 6 6 5 4 4 4 4 4 5 4 4 4 4 4 5 6 6 7 7 7 7 7 8 8 8 9 9 9
7 7 7 7 8 7 5 5 6 5 5 5 5 4 4 3 3 4 5 4 5 3 3 3 4 3 4 5 5 5 6 6 7 7 7 7 8 8
7 6 6 7 8 9 9 9 8 7 6 6 5 6 6 5 4 4 4 5 4 2 3 4 3 3 3 4 5 6 6 6 6 6 7 7 8 8
6 6 5 5 6 6 6 7 8 8 8 7 7 6 6 5 5 5 5 6 5 4 4 4 3 3 3 4 6 6 6 6 5 6 7 7 8 8
6 6 6 5 5 5 5 5 6 6 6 6 6 6 5 5 5 6 6 5 4 3 3 4 4 4 4 3 4 5 5 6 6 6 7 7 7 8
5 5 5 5 6 6 5 6 6 5 4 5 6 6 6 6 5 3 4 4 4 3 3 3 3 4 4 3 3 3 5 6 6 6 7 7 7 8
4 4 5 6 6 6 5 5 6 5 4 3 4 4 4 4 5 4 4 4 3 2 1 2 2 2 3 2 3 3 3 5 6 7 7 7 7 5
3 3 3 5 7 7 6 5 5 5 4 3 3 2 3 2 2 3 3 3 3 3 2 1 2 2 2 3 3 3 3 4 4 4 5 6 7 6
3 3 3 5 6 6 5 5 5 4 2 2 2 2 2 2 2 2 2 2 3 3 3 3 2 2 2 3 3 3 3 4 4 4 4 5 5 5
3 4 4 5 5 4 4 5 4 2 2 2 2 2 2 2 2 1 2 1 2 2 2 2 2 2 2 2 2 3 4 3 3 4 4 4 4 3
3 3 4 3 3 3 3 2 2 2 2 2 2 2 2 2 1 1 2 1 1 1 2 2 1 1 1 2 2 3 3 2 3 4 4 3 3 3
3 2 1 1 1 1 1 1 1 1 2 2 2 2 1 1 1 1 2 2 1 1 2 2 2 1 1 1 1 2 2 2 3 3 3 3 3 3
2 1 1 1 1 1 2 2 2 1 2 2 2 2 1 1 1 1 1 1 1 1 1 1 1 1 1 1 1 2 2 2 3 3 3 2 3 3
1 1 2 2 2 2 2 2 2 2 2 2 2 2 1 1 1 1 1 1 1 1 1 1 1 1 1 1 1 2 2 3 3 3 3 3 2 3
1 2 2 2 2 2 2 2 2 2 2 1 2 2 1 1 1 1 1 1 1 1 1 1 1 1 1 1 1 2 3 3 2 3 3 2 2 2
2 2 2 2 2 2 2 2 2 2 2 2 2 2 1 1 1 1 1 1 1 1 1 1 1 2 1 0 0 1 2 3 3 3 3 2 2 2
2 2 2 3 2 2 2 2 2 2 2 2 2 1 1 1 1 2 1 1 1 0 0 1 1 1 1 0 1 1 2 3 3 4 3 3 2 1
3 3 2 2 2 2 2 2 2 2 2 2 1 1 1 1 1 1 1 1 1 1 1 1 1 1 1 1 1 1 2 3 2 3 3 4 4 3
Wind_Direction
250 246 247 252 254 253 252 254 259 269 272 273 272 272 279 281 288 281 283 288 290 290 288 289 288 287 286 284 286 286 287 287 288 287 282 279 278 277
256 254 251 253 256 252 252 254 253 258 269 272 281 285 287 288 291 289 291 294 288 287 289 289 290 289 286 284 282 283 285 287 287 285 283 278 278 278
259 257 257 253 252 254 252 251 253 253 262 274 278 284 286 285 288 289 291 291 289 286 289 290 290 287 284 284 285 285 284 286 287 286 283 281 280 281
262 261 258 255 253 251 250 252 253 253 258 270 280 284 286 287 289 291 291 287 287 297 295 291 289 289 286 286 283 285 287 286 287 286 285 283 280 280
259 257 259 258 257 256 254 254 255 256 257 264 275 282 287 291 291 288 287 287 292 297 295 291 294 294 293 292 285 285 287 287 289 289 286 285 282 280
258 257 259 259 259 259 257 257 257 259 258 261 267 274 282 291 288 285 288 290 292 296 294 297 300 299 301 296 291 286 285 286 288 290 288 289 287 284
259 258 261 263 265 265 264 262 257 255 258 261 264 269 273 276 275 284 282 291 290 288 294 297 300 302 305 298 294 293 289 291 290 291 291 292 293 290
261 262 264 260 262 265 269 270 268 259 256 256 260 259 267 274 278 274 276 279 284 284 295 295 294 299 305 302 310 309 305 297 294 296 297 298 296 291
262 263 265 265 263 262 267 271 273 273 267 263 259 261 264 265 270 275 272 274 277 287 289 286 296 297 301 302 309 306 308 305 301 299 299 300 299 298
262 260 263 266 263 265 267 270 270 269 268 265 263 266 269 272 265 268 275 282 284 285 284 281 293 296 299 297 304 305 314 313 306 303 303 307 309 305
268 265 263 262 264 269 265 265 269 272 272 269 275 280 281 280 279 271 263 261 273 274 278 273 285 298 299 297 308 318 322 320 315 312 312 314 313 306
272 269 264 267 269 269 262 260 265 271 273 278 275 279 276 270 272 263 256 256 269 266 246 266 279 300 295 291 311 320 316 315 317 319 317 319 321 310
274 275 273 274 276 276 271 266 266 275 273 271 273 280 280 277 280 282 277 263 264 264 258 263 275 288 280 292 307 313 315 319 317 314 315 320 323 318
276 278 278 283 282 284 275 270 272 272 262 260 266 271 277 285 295 297 291 294 292 276 270 269 261 265 281 289 292 309 325 330 331 330 330 330 323 323
283 291 295 294 292 282 274 275 270 254 244 247 261 275 283 285 288 294 301 298 306 309 299 283 261 256 270 277 291 305 316 327 337 338 338 343 345 343
285 290 292 295 294 286 284 277 268 260 253 253 264 276 287 287 285 290 287 288 299 340 351 338 295 260 274 292 291 303 317 321 335 336 339 344 349 355
304 295 300 301 302 313 308 306 302 290 278 273 266 261 274 285 301 305 294 296 298 306 333 354 4 8 325 298 292 304 319 331 336 337 340 347 353 3
298 298 297 296 292 292 297 307 304 292 283 271 263 264 263 275 296 306 303 294 303 319 328 336 337 341 23 45 352 305 329 337 338 339 340 342 352 6
306 308 303 301 298 294 295 302 305 304 297 278 263 262 265 265 274 288 291 299 318 325 339 347 340 312 303 345 28 18 333 332 334 342 349 345 340 345
321 308 307 309 308 307 307 306 302 300 296 292 282 270 258 250 248 269 275 287 287 301 333 351 347 335 326 328 333 343 346 327 328 336 343 342 352 352
316 309 307 306 305 303 302 298 295 294 299 297 290 284 268 251 248 259 257 267 261 263 310 335 345 345 349 35 33 354 358 356 344 328 331 341 357 6
310 303 300 300 299 298 296 295 294 293 292 290 294 292 285 267 253 251 239 226 226 217 317 12 34 38 42 57 15 356 348 352 5 11 14 3 345 347
303 296 291 292 290 288 286 283 285 286 285 284 286 286 281 281 275 254 232 217 194 166 150 101 56 46 46 50 27 13 4 354 357 15 36 35 26 13